Sarasota, FL

6:16 PM EDT on May 24, 2017 (GMT -0400)
Sarasota-bradenton

Weather History for KSRQ - January, 2000

Change the Weather History Date:

Saturday, January 8, 2000

  Actual Average Record
Temperature  
Mean Temperature 68 °F 61 °F  
Max Temperature 73 °F 71 °F 86 °F (1990)
Min Temperature 62 °F 52 °F 34 °F (1970)
Degree Days  
Heating Degree Days 0 6  
Month to date heating degree days 46  
Since 1 July heating degree days 201  
Cooling Degree Days 2 2  
Month to date cooling degree days 16  
Year to date cooling degree days 16  
Growing Degree Days 18 (Base 50)    
Moisture  
Dew Point 63 °F    
Average Humidity 95    
Maximum Humidity 100    
Minimum Humidity 73    
Precipitation  
Precipitation 0.00 in 0.12 in 2.98 in (1945)
Month to date precipitation 0.99  
Year to date precipitation 0.99  
Sea Level Pressure  
Sea Level Pressure 30.19 in    
Wind  
Wind Speed 8 mph (NE)    
Max Wind Speed 10 mph    
Max Gust Speed -    
Visibility 3 miles    
Events Fog    
T = Trace of Precipitation, MM = Missing Value Source: NWS Daily Summary

Daily Weather History Graph

Daily Weather History Graph

Search for Another Location

Airport or City:

Trip Planner

Search our weather history database for the weather conditions in past years. The results will help you decide how hot, cold, wet, or windy it might be!

Date:

Astronomy

Jan. 08, 2000 Rise Set
Actual Time 7:21 AM EST 5:52 PM EST
Civil Twilight 6:56 AM EST 6:17 PM EST
Nautical Twilight 6:27 AM EST 6:46 PM EST
Astronomical Twilight 5:58 AM EST 7:14 PM EST
Moon 8:40 AM EST (1/8) 7:42 PM EST (1/8)
Length of Visible Light 11h 21m
Length of Day
10h 30m
Waxing Crescent, 3% of the Moon is Illuminated
Jan 8
Waxing Crescent
Jan 14
First Quarter
Jan 20
Full
Jan 28
Last Quarter
Feb 5
New

Hourly Weather History & Observations

Time (EST) Temp. Dew Point Humidity Pressure Visibility Wind Dir Wind Speed Gust Speed Precip Events Conditions
12:31 AM 62.6 °F 62.6 °F 100% 30.22 in 4.0 mi NE 6.9 mph - N/A   Scattered Clouds
12:43 AM 64.4 °F 62.6 °F 94% 30.21 in 4.0 mi NE 8.1 mph - N/A   Mostly Cloudy
12:53 AM 64.0 °F 63.0 °F 96% 30.21 in 3.0 mi NE 9.2 mph - N/A   Overcast
1:12 AM 64.4 °F 62.6 °F 94% 30.21 in 2.5 mi ENE 10.4 mph - N/A   Overcast
1:23 AM 64.4 °F 62.6 °F 94% 30.21 in 3.0 mi ENE 10.4 mph - N/A   Overcast
1:53 AM 64.0 °F 63.0 °F 96% 30.20 in 4.0 mi ENE 9.2 mph - N/A   Overcast
2:12 AM 62.6 °F 62.6 °F 100% 30.20 in 4.0 mi ENE 8.1 mph - N/A   Scattered Clouds
2:31 AM 64.4 °F 62.6 °F 94% 30.20 in 3.0 mi ENE 10.4 mph - N/A   Mostly Cloudy
2:53 AM 64.0 °F 63.0 °F 96% 30.19 in 4.0 mi ENE 9.2 mph - N/A   Overcast
3:53 AM 63.0 °F 63.0 °F 100% 30.19 in 1.8 mi ENE 9.2 mph - N/A   Overcast
4:10 AM 62.6 °F 62.6 °F 100% 30.19 in 0.5 mi ENE 9.2 mph - N/A Fog Fog
4:17 AM 62.6 °F 62.6 °F 100% 30.19 in 0.5 mi ENE 9.2 mph - N/A Fog Fog
4:53 AM 63.0 °F 63.0 °F 100% 30.19 in 0.8 mi ENE 9.2 mph - N/A   Mist
5:53 AM 63.0 °F 63.0 °F 100% 30.20 in 0.5 mi ENE 4.6 mph - N/A Fog Fog
6:53 AM 63.0 °F 62.1 °F 97% 30.20 in 0.5 mi East 5.8 mph - N/A Fog Fog
7:41 AM 62.6 °F 62.6 °F 100% 30.21 in 0.2 mi ENE 9.2 mph - N/A Fog Fog
7:53 AM 62.1 °F 62.1 °F 100% 30.22 in 0.2 mi East 6.9 mph - N/A Fog Fog
8:53 AM 62.1 °F 62.1 °F 100% 30.23 in 0.2 mi East 10.4 mph - N/A Fog Fog
9:53 AM 63.0 °F 63.0 °F 100% 30.25 in 0.5 mi East 9.2 mph - N/A Fog Fog
10:38 AM 64.4 °F 64.4 °F 100% 30.25 in 1.0 mi ENE 8.1 mph - N/A   Overcast
10:53 AM 64.0 °F 64.0 °F 100% 30.25 in 1.5 mi ENE 8.1 mph - N/A   Overcast
11:34 AM 66.2 °F 64.4 °F 94% 30.23 in 5.0 mi East 5.8 mph - N/A   Overcast
11:53 AM 66.0 °F 64.0 °F 93% 30.22 in 5.0 mi East 6.9 mph - N/A   Overcast
12:21 PM 69.8 °F 64.4 °F 83% 30.21 in 5.0 mi East 5.8 mph - N/A   Overcast
12:53 PM 69.1 °F 64.0 °F 84% 30.20 in 7.0 mi ESE 4.6 mph - N/A   Overcast
1:39 PM 73.4 °F 64.4 °F 73% 30.18 in 10.0 mi East 4.6 mph - N/A   Mostly Cloudy
1:53 PM 72.0 °F 64.9 °F 78% 30.17 in 10.0 mi Variable 3.5 mph - N/A   Mostly Cloudy
2:53 PM 73.0 °F 64.9 °F 76% 30.16 in 10.0 mi West 5.8 mph - N/A   Scattered Clouds
3:53 PM 71.1 °F 64.9 °F 81% 30.15 in 10.0 mi West 8.1 mph - N/A   Clear
4:34 PM 66.2 °F 64.4 °F 94% 30.15 in 2.5 mi West 6.9 mph - N/A   Scattered Clouds
4:43 PM 66.2 °F 64.4 °F 94% 30.15 in 1.0 mi West 8.1 mph - N/A   Mostly Cloudy
4:53 PM 66.0 °F 64.9 °F 96% 30.16 in 0.8 mi West 8.1 mph - N/A   Overcast
5:18 PM 66.2 °F 64.4 °F 94% 30.16 in 1.2 mi WNW 6.9 mph - N/A   Overcast
5:53 PM 64.9 °F 64.9 °F 100% 30.16 in 1.2 mi WNW 5.8 mph - N/A   Overcast
6:06 PM 66.2 °F 64.4 °F 94% 30.16 in 2.5 mi WNW 6.9 mph - N/A   Overcast
6:53 PM 64.9 °F 64.0 °F 97% 30.17 in 2.0 mi NW 5.8 mph - N/A   Overcast
7:53 PM 64.9 °F 64.0 °F 97% 30.18 in 2.0 mi NNW 6.9 mph - N/A   Overcast
8:53 PM 64.0 °F 64.0 °F 100% 30.18 in 2.5 mi Calm Calm - N/A   Overcast
9:32 PM 62.6 °F 62.6 °F 100% 30.19 in 0.2 mi NNW 5.8 mph - N/A Fog Fog
9:53 PM 63.0 °F 63.0 °F 100% 30.18 in 0.5 mi NW 5.8 mph - N/A Fog Fog
10:53 PM 63.0 °F 63.0 °F 100% 30.19 in 0.5 mi North 5.8 mph - N/A Fog Fog
11:26 PM 62.6 °F 62.6 °F 100% 30.18 in 0.2 mi North 3.5 mph - N/A Fog Fog
11:53 PM 63.0 °F 63.0 °F 100% 30.17 in 0.2 mi NNE 4.6 mph - N/A Fog Fog